Probability
0 0 0 0 0 0 0 0 0 0 0 0 0 0 0 0 0 0 0 0 0 0 0 0 0 0 0 0 0 0 0 0 0 0 0 0 0 0 0 0 0 0 0
0 0 0 0 0 0 0 0 0 0 0 0 0 0 0 0 0 0 0 0 0 0 0 0 0 0 0 0 0 0 0 0 0 0 0 0 0 0 0 0 0 0 0
0 0 0 0 0 0 0 0 0 0 0 0 0 0 0 0 0 0 0 0 0 0 0 0 0 0 0 0 0 0 0 0 0 0 0 0 0 0 0 0 0 0 0
0 0 0 0 0 0 0 0 0 0 0 0 0 0 0 0 0 0 0 0 0 0 0 0 0 0 0 0 0 0 0 0 0 0 0 0 0 0 0 0 0 0 0
0 0 0 0 0 0 0 0 0 0 0 0 0 0 0 0 0 0 0 0 0 0 0 0 0 0 0 0 0 0 0 0 0 0 0 0 0 0 0 0 0 0 0
0 0 0 0 0 0 0 0 0 0 0 0 0 0 0 0 0 0 0 0 0 0 0 0 0 0 0 0 0 0 0 0 0 0 0 0 0 0 0 0 0 0 0
0 0 0 0 0 0 0 0 0 0 0 0 0 0 0 0 0 0 0 0 0 0 0 0 0 0 0 0 0 0 0 0 0 0 0 0 0 0 0 0 0 0 0
0 0 0 0 0 0 0 0 0 0 0 0 0 0 0 0 0 0 0 0 0 0 0 0 0 0 0 0 0 0 0 0 0 0 0 0 0 0 0 0 0 0 0
0 0 0 0 0 0 0 0 0 0 0 0 0 0 0 0 0 0 0 0 0 0 0 0 0 0 0 0 0 0 0 0 0 0 0 0 0 0 0 0 0 0 0
0 0 0 0 0 0 0 0 0 0 0 0 0 0 0 0 0 0 0 0 0 0 0 0 0 0 0 0 0 0 0 0 0 0 0 0 0 0 0 0 0 0 0
0 0 0 0 0 0 0 0 0 0 0 0 0 0 0 0 0 0 0 0 0 0 0 0 0 0 0 0 0 0 0 0 0 0 0 0 0 0 0 0 0 0 0
0 0 0 0 0 0 0 0 0 0 0 0 0 0 0 0 0 0 0 0 0 0 0 0 0 0 0 0 0 0 0 0 0 0 0 0 0 0 0 0 0 0 0
0 0 0 0 0 0 0 0 0 0 0 0 0 0 0 0 0 0 0 0 0 0 0 0 0 0 0 0 0 0 0 0 0 0 0 0 0 0 0 0 0 0 0
0 0 0 0 0 0 0 0 0 0 0 0 0 0 0 0 0 0 0 0 0 0 0 0 0 0 0 0 0 0 0 0 0 0 0 0 0 0 0 0 0 0 0
0 0 0 0 0 0 0 0 0 0 0 0 0 0 0 0 0 0 0 0 0 0 0 0 0 0 0 0 0 0 0 0 0 0 0 0 0 0 0 0 0 0 0
0 0 0 0 0 0 0 0 0 0 0 0 0 0 0 0 0 0 0 0 0 0 0 0 0 0 0 0 0 0 0 0 0 0 0 0 0 0 0 0 0 0 0
0 0 0 0 0 0 0 0 0 0 0 0 0 0 0 0 0 0 0 0 0 0 0 0 0 0 0 0 0 0 0 0 0 0 0 0 0 0 0 0 0 0 0
0 0 0 0 0 0 0 0 0 0 0 0 0 0 0 0 0 0 0 0 0 0 0 0 0 0 0 0 0 0 0 0 0 0 0 0 0 0 0 0 0 0 0
0 0 0 0 0 0 0 0 0 0 0 0 0 0 0 0 0 0 0 0 0 0 0 0 0 0 0 0 0 0 0 0 0 0 0 0 0 0 0 0 0 0 0
0 0 0 0 0 0 0 0 0 0 0 0 0 0 0 0 0 0 0 0 0 0 0 0 0 0 0 0 0 0 0 0 0 0 0 0 0 0 0 0 0 0 0
0 0 0 0 0 0 0 0 0 0 0 0 0 0 0 0 0 0 0 0 0 0 0 0 0 0 0 0 0 0 0 0 0 0 0 0 0 0 0 0 0 0 0
0 0 0 0 0 0 0 0 0 0 0 0 0 0 0 0 0 0 0 0 0 0 0 0 0 0 0 0 0 0 0 0 0 0 0 0 0 0 0 0 0 0 0
0 0 0 0 0 0 0 0 0 0 0 0 0 0 0 0 0 0 0 0 0 0 0 0 0 0 0 0 0 0 0 0 0 0 0 0 0 0 0 0 0 0 0
0 0 0 0 0 0 0 0 0 0 0 0 0 0 0 0 0 0 0 0 0 0 0 0 0 0 0 0 0 0 0 0 0 0 0 0 0 0 0 0 0 0 0
0 0 0 0 0 0 0 0 0 0 0 0 0 0 0 0 0 0 0 0 0 0 0 0 0 0 0 0 0 0 0 0 0 0 0 0 0 0 0 0 0 0 0
0 0 0 0 0 0 0 0 0 0 0 0 0 0 0 0 0 0 0 0 0 0 0 0 0 0 0 0 0 0 0 0 0 0 0 0 0 0 0 0 0 0 0
Wind_Speed
4 4 5 5 5 5 5 6 6 6 6 6 6 5 5 5 4 4 4 4 4 4 4 4 5 4 3 3 3 3 3 3 4 3 2 1 2 2 2 1 2 2 2
4 5 5 5 5 6 6 7 6 6 6 6 6 5 5 5 5 4 5 5 5 5 4 4 5 4 4 3 3 4 4 4 4 4 2 2 3 3 3 2 1 1 2
5 5 6 6 6 6 7 7 6 6 6 6 5 5 6 6 5 5 5 5 5 5 4 4 5 5 5 4 4 4 3 3 3 4 3 2 2 2 2 1 1 1 2
5 5 6 6 6 6 7 7 6 6 6 6 6 5 5 6 6 5 5 4 4 4 4 5 5 5 6 5 4 4 4 3 4 4 3 3 2 2 2 2 1 1 1
6 6 6 6 6 6 6 6 6 6 6 6 6 5 5 5 5 6 5 4 4 4 4 4 5 6 6 5 4 4 4 4 4 4 4 3 3 3 4 3 3 1 2
6 6 6 6 7 7 6 6 6 6 6 6 5 6 6 5 9 10 8 4 4 4 4 4 4 5 7 8 8 8 7 6 6 5 4 6 6 5 3 4 3 2 2
6 6 6 6 7 7 7 7 6 6 6 6 6 6 6 7 11 11 10 6 4 4 4 4 4 5 6 5 7 8 9 10 9 7 7 7 6 6 6 6 5 4 4
6 6 6 7 7 7 7 7 6 5 5 5 6 6 6 7 11 11 10 6 4 4 4 5 5 5 5 5 5 5 5 6 7 6 6 7 6 6 6 6 5 3 1
6 7 7 7 7 7 7 7 6 5 5 5 5 5 5 7 10 11 10 4 4 5 4 4 4 5 7 8 5 5 5 5 6 7 7 6 7 8 6 4 4 4 3
7 7 7 7 7 7 7 7 5 5 6 6 6 5 5 6 9 10 9 3 4 4 4 4 6 6 8 8 5 5 6 5 3 3 3 4 5 7 9 7 6 5 3
7 7 7 7 7 7 6 6 6 6 5 5 6 6 5 6 8 10 9 4 4 4 4 3 4 8 9 9 7 5 7 5 3 3 3 2 3 3 4 4 4 5 4
7 7 7 7 6 6 6 6 5 5 5 5 5 5 4 5 7 8 10 9 7 4 4 4 5 8 9 8 7 6 6 4 2 2 3 3 3 3 2 2 2 2 2
7 7 7 7 6 6 5 6 5 4 4 5 4 5 5 4 5 10 10 9 9 5 4 8 8 7 6 5 5 5 4 2 2 3 3 3 2 2 2 2 1 1 1
7 7 7 6 6 6 5 5 4 4 4 5 5 5 5 5 4 4 4 5 6 6 5 6 6 4 3 4 3 3 2 2 3 3 2 2 2 2 2 2 2 2 1
7 6 6 6 6 5 5 5 6 5 5 6 5 4 5 5 7 10 6 4 3 4 4 2 1 1 2 2 2 2 1 1 2 2 2 2 2 2 2 2 2 2 2
6 6 5 5 5 5 5 6 8 8 11 11 10 9 7 9 11 10 9 8 7 6 3 1 2 2 2 2 2 2 1 1 1 2 2 3 3 3 2 1 2 2 3
6 6 5 5 5 5 5 5 6 8 9 10 10 11 10 10 10 9 8 7 6 4 2 2 2 2 2 2 2 2 2 2 1 2 2 2 2 2 2 2 2 2 2
6 7 6 5 5 5 5 5 5 6 6 6 8 10 11 10 10 9 8 6 4 3 2 2 2 2 2 2 2 2 2 2 2 2 2 2 3 3 3 3 3 3 3
5 5 4 4 4 4 5 5 5 5 5 6 5 6 9 9 9 8 7 3 3 3 3 2 2 3 2 2 2 2 2 2 2 2 2 3 3 3 3 3 3 4 3
5 9 7 5 4 4 4 4 5 5 5 5 5 5 5 6 4 4 4 3 3 3 3 3 3 3 3 3 2 2 3 2 3 2 3 3 3 3 4 4 4 4 3
4 6 9 6 4 5 5 5 5 5 5 5 5 6 9 5 4 4 4 3 3 4 3 3 3 3 3 3 3 3 3 3 3 2 2 3 3 3 3 3 4 4 3
4 4 4 4 4 4 5 4 4 5 5 6 5 6 10 5 4 4 4 4 4 3 3 3 3 3 3 3 3 3 3 3 3 3 3 3 3 3 3 4 4 4 4
4 4 4 4 4 6 6 4 4 5 5 5 5 5 5 5 5 5 5 4 4 4 4 4 4 4 4 3 3 3 4 4 4 4 4 4 4 4 4 4 5 5 5
4 4 5 5 4 4 4 5 5 5 5 5 5 5 5 5 5 6 5 5 5 4 4 4 4 5 6 5 3 3 3 4 4 4 6 5 5 4 4 4 5 5 5
3 4 4 4 5 5 5 5 5 5 5 5 5 5 5 5 5 5 5 5 5 5 6 5 4 5 6 6 5 4 6 7 7 5 5 5 5 5 5 5 5 5 5
3 4 4 4 4 4 4 4 5 5 5 5 5 5 5 5 5 5 5 5 5 5 6 5 5 6 6 6 6 7 7 8 8 7 4 3 4 5 5 4 5 5 5
Wind_Direction
325 322 321 318 316 316 311 308 306 307 307 304 299 293 290 282 272 261 258 263 265 265 263 255 252 249 240 229 224 225 220 203 223 244 239 240 222 217 236 238 240 244 233
312 315 313 314 316 316 312 310 308 308 309 306 305 302 298 292 279 262 259 260 257 260 261 259 262 255 243 236 226 225 225 215 207 223 229 231 234 213 203 216 243 248 248
311 314 315 315 313 310 309 311 311 308 309 309 307 303 302 299 293 276 261 260 254 251 251 252 256 255 242 240 234 229 230 228 209 204 218 225 237 211 194 218 228 232 258
312 311 311 308 304 302 304 308 310 309 308 309 304 299 300 298 296 291 277 268 265 260 255 250 248 249 246 234 234 229 226 219 208 200 203 205 215 208 185 193 226 228 245
310 309 308 306 303 304 306 307 309 308 306 302 301 300 300 298 295 300 289 274 267 268 264 256 252 254 261 251 242 229 221 216 211 205 205 205 205 195 201 192 206 221 263
308 307 310 310 309 307 306 306 308 307 303 300 298 297 296 297 300 300 303 283 272 268 266 263 260 254 259 256 255 249 235 223 215 214 214 210 209 203 198 189 183 193 239
308 308 311 311 310 308 306 306 303 303 301 299 295 292 290 291 298 298 297 297 278 273 271 264 266 264 267 258 253 253 247 242 232 220 214 214 208 200 194 197 197 205 225
311 309 310 310 308 308 306 302 299 297 295 293 294 291 291 294 300 300 298 294 278 268 264 259 258 261 261 261 252 250 248 246 242 237 225 221 215 201 201 203 197 203 216
311 310 309 308 307 309 308 306 303 303 299 292 295 294 293 297 303 304 304 290 283 277 269 268 264 258 261 263 256 251 255 258 256 247 241 233 224 216 202 180 179 184 216
310 307 305 304 304 303 300 301 302 302 298 301 302 298 291 292 298 301 302 288 288 286 278 269 268 271 273 271 263 247 250 255 245 250 237 226 217 210 210 202 191 198 202
307 306 306 305 301 296 297 299 301 300 301 299 299 299 292 293 299 301 302 295 279 283 282 277 270 275 277 274 271 258 253 253 233 223 218 203 197 200 207 210 204 200 204
307 305 304 304 303 307 302 299 299 298 297 297 298 301 298 295 299 299 301 298 296 283 280 276 271 276 278 277 273 263 262 244 210 204 206 204 201 205 201 196 201 208 216
309 307 304 304 303 306 301 298 299 295 294 298 298 300 304 305 299 300 298 297 294 291 280 283 283 281 284 281 273 273 259 221 199 208 212 216 209 190 168 151 137 127 97
306 305 305 303 303 304 301 298 296 293 292 295 296 298 299 299 295 290 289 289 288 289 287 284 284 285 289 292 290 282 255 222 210 213 211 195 167 169 174 168 170 163 161
305 304 306 306 303 301 300 295 295 282 286 296 292 291 295 294 295 298 301 291 285 286 311 309 295 293 286 288 287 281 265 229 216 200 192 187 185 181 187 179 177 179 199
307 309 306 304 304 305 306 307 304 304 308 305 303 302 296 299 307 304 303 304 302 301 313 301 287 272 270 269 272 269 262 255 236 211 201 191 190 188 189 188 188 190 194
300 303 304 306 306 306 307 309 312 317 316 318 317 315 313 315 316 318 320 316 312 314 300 284 279 269 270 271 270 266 259 255 240 219 210 196 188 187 187 195 197 192 196
304 303 306 301 300 301 302 302 303 308 315 316 318 320 322 322 323 325 328 332 326 324 308 293 288 284 278 273 271 272 265 250 234 224 213 199 192 189 191 197 197 197 196
309 305 301 299 300 300 301 301 300 302 305 310 315 319 324 324 324 326 329 326 314 308 305 298 291 288 281 271 268 266 262 253 242 231 220 207 198 191 195 198 199 209 211
307 314 317 311 310 309 307 306 305 304 306 308 311 314 320 323 324 323 323 316 308 304 302 298 297 293 285 276 270 262 256 250 244 237 228 213 205 200 200 201 200 204 212
308 311 316 314 308 306 305 305 305 305 305 306 307 312 318 320 317 315 313 309 304 302 301 298 292 288 280 272 262 256 252 248 241 234 231 221 209 208 210 205 204 207 201
310 309 310 306 303 303 306 305 305 304 305 305 308 313 317 315 310 307 306 306 304 300 299 295 292 288 279 267 259 253 247 243 238 230 227 223 218 212 208 206 205 201 196
309 309 310 311 308 311 313 310 308 307 308 310 311 313 316 315 312 309 306 307 308 306 305 297 291 290 288 277 263 249 244 241 237 229 225 221 216 214 211 210 206 201 202
311 312 312 313 314 312 311 310 306 305 306 307 307 308 308 308 308 309 310 309 307 305 304 299 292 292 293 288 276 262 253 252 245 233 226 219 216 214 212 210 208 206 206
323 317 314 312 312 310 307 308 309 310 308 306 305 305 306 306 305 305 305 306 307 305 303 299 294 292 290 287 284 276 274 273 267 250 226 217 211 208 206 207 206 204 206
323 317 313 311 308 306 305 305 306 308 307 306 304 302 301 300 301 302 303 304 305 304 304 300 298 295 294 288 284 284 283 279 275 269 249 212 204 207 202 203 202 203 202